Location: ??????????
(54.7560°N, 39.1389°E)
Time: 00:57:31
(UTC+00:00)

Cosmos 1805 - Pass Details

Date: 19 May 2025
Orbit: 448 x 453 km, 82.5° (Epoch: 13 June)

Event Time Altitude Azimuth Distance (km) Brightness Sun altitude
Rises 19:06:26 0° 350° (N) 2,472 8.1 -10.0°
Reaches altitude 10° 19:08:32 10° 354° (N) 1,593 6.8 -10.2°
Maximum altitude 19:11:59 63° 76° (ENE) 507 3.0 -10.4°
Enters shadow 19:14:34 16° 156° (SSE) 1,242 4.5 -10.6°
